Powrót do katalogu

STARLINK-34316

AktywnyŁącznośćVLEO
NORAD 64707·PAYLOAD·🇺🇸 United States

Wystrzelony Jun 28, 2025 z Vandenberg Space Force Base

Loading…

Następne Przeloty (najbliższe 24 godziny)

TLE

ŚwieżeSource: CelesTrak SupGP

Epoka: Sep 15, 2026, 03:48 UTC

1 64707C 25142M   26258.15881944 -.00025617  00000+0 -89113-3 0  2586
2 64707  70.0014 194.8936 0003180 273.2321 231.1026 15.29592636    14

Śledź STARLINK-34316 w czasie rzeczywistym z AllMySat

Download on the App Store